When you browse on this site, cookies collect data to enhance your experience and personalize the content and advertising you see.
Visit our Privacy Policy to learn more. By continuing to use the site, you agree to this use of cookies and data.
  • In Sweden
  • List of Countries
  • For 7 days
  • Water Temperature
  • Satellite Maps
  • Weather Map
  • Weather Widgets
  • user-avatar
    Login

    Hourly Weather San Miguel de Tucumán

    Today, 17 July, Wednesday

    Time Temperature Precipitation Wind Pressure Humidity
    00:00 +15°C° 0 mm 1 mps 722 mmHg 81%
    01:00 +15°C° 0 mm 1 mps 722 mmHg 81%
    02:00 +14°C° 0 mm 1 mps 722 mmHg 81%
    03:00 +14°C° 0 mm 1 mps 722 mmHg 81%
    04:00 +14°C° 0 mm 1 mps 721 mmHg 81%
    05:00 +14°C° 0 mm 1 mps 721 mmHg 81%
    06:00 +14°C° 0 mm 1 mps 722 mmHg 79%
    07:00 +14°C° 0 mm 1 mps 722 mmHg 77%
    08:00 +15°C° 0 mm 1 mps 722 mmHg 75%
    09:00 +18°C° 0 mm 1 mps 722 mmHg 67%
    10:00 +21°C° 0 mm 1 mps 722 mmHg 59%
    11:00 +23°C° 0 mm 1 mps 722 mmHg 51%
    12:00 +24°C° 0 mm 1 mps 722 mmHg 48%
    13:00 +26°C° 0 mm 1 mps 721 mmHg 44%
    14:00 +27°C° 0 mm 2 mps 720 mmHg 41%
    15:00 +26°C° 0 mm 2 mps 720 mmHg 43%
    16:00 +25°C° 0 mm 2 mps 719 mmHg 46%
    17:00 +25°C° 0 mm 2 mps 719 mmHg 49%
    18:00 +23°C° 0 mm 2 mps 719 mmHg 54%
    19:00 +20°C° 0 mm 2 mps 719 mmHg 59%
    20:00 +19°C° 0 mm 1 mps 720 mmHg 65%
    21:00 +18°C° 0 mm 1 mps 720 mmHg 64%
    22:00 +18°C° 0 mm 1 mps 720 mmHg 63%
    23:00 +18°C° 0 mm 1 mps 720 mmHg 63%

    Tomorrow, 18 July, Thursday

    Time Temperature Precipitation Wind Pressure Humidity
    00:00 +16°C° 0 mm 1 mps 719 mmHg 63%
    01:00 +16°C° 0 mm 1 mps 719 mmHg 63%
    02:00 +15°C° 0 mm 1 mps 718 mmHg 64%
    03:00 +15°C° 0 mm 1 mps 718 mmHg 64%
    04:00 +15°C° 0 mm 1 mps 718 mmHg 63%
    05:00 +14°C° 0 mm 1 mps 718 mmHg 63%
    06:00 +15°C° 0 mm 1 mps 718 mmHg 62%
    07:00 +15°C° 0 mm 1 mps 718 mmHg 60%
    08:00 +15°C° 0 mm 1 mps 719 mmHg 59%
    09:00 +19°C° 0 mm 1 mps 719 mmHg 53%
    10:00 +21°C° 0 mm 1 mps 720 mmHg 47%
    11:00 +24°C° 0 mm 1 mps 720 mmHg 41%
    12:00 +25°C° 0 mm 2 mps 720 mmHg 40%
    13:00 +25°C° 0 mm 2 mps 720 mmHg 40%
    14:00 +26°C° 0 mm 3 mps 720 mmHg 39%
    15:00 +25°C° 0 mm 3 mps 720 mmHg 41%
    16:00 +24°C° 0 mm 3 mps 721 mmHg 43%
    17:00 +24°C° 0 mm 3 mps 721 mmHg 45%
    18:00 +21°C° 0 mm 3 mps 722 mmHg 50%
    19:00 +20°C° 0 mm 2 mps 722 mmHg 54%
    20:00 +18°C° 0 mm 2 mps 723 mmHg 59%
    21:00 +17°C° 0 mm 2 mps 723 mmHg 60%
    22:00 +18°C° 0 mm 1 mps 723 mmHg 62%
    23:00 +16°C° 0 mm 1 mps 724 mmHg 63%

    Day after tomorrow, 19 July, Friday

    Time Temperature Precipitation Wind Pressure Humidity
    00:00 +16°C° 0 mm 1 mps 723 mmHg 64%
    01:00 +16°C° 0 mm 1 mps 723 mmHg 64%
    02:00 +16°C° 0 mm 1 mps 723 mmHg 64%
    03:00 +15°C° 0 mm 1 mps 722 mmHg 66%
    04:00 +15°C° 0 mm 1 mps 722 mmHg 68%
    05:00 +13°C° 0 mm 0 mps 722 mmHg 69%
    06:00 +13°C° 0 mm 0 mps 722 mmHg 69%
    07:00 +14°C° 0 mm 1 mps 722 mmHg 69%
    08:00 +14°C° 0 mm 1 mps 722 mmHg 69%
    09:00 +16°C° 0 mm 1 mps 721 mmHg 63%
    10:00 +20°C° 0 mm 1 mps 721 mmHg 56%
    11:00 +21°C° 0 mm 2 mps 721 mmHg 50%
    12:00 +23°C° 0 mm 2 mps 720 mmHg 48%
    13:00 +25°C° 0 mm 2 mps 719 mmHg 45%
    14:00 +26°C° 0 mm 3 mps 718 mmHg 43%
    15:00 +26°C° 0 mm 3 mps 717 mmHg 46%
    16:00 +25°C° 0 mm 2 mps 717 mmHg 49%
    17:00 +25°C° 0 mm 2 mps 716 mmHg 53%
    18:00 +23°C° 0 mm 2 mps 716 mmHg 59%
    19:00 +20°C° 0 mm 2 mps 716 mmHg 66%
    20:00 +19°C° 0 mm 1 mps 716 mmHg 72%
    21:00 +18°C° 0 mm 1 mps 716 mmHg 72%
    22:00 +18°C° 0 mm 1 mps 716 mmHg 72%
    23:00 +18°C° 0 mm 1 mps 716 mmHg 73%

    20 July, Saturday

    Time Temperature Precipitation Wind Pressure Humidity
    00:00 +16°C° 0 mm 1 mps 715 mmHg 73%
    01:00 +16°C° 0 mm 1 mps 715 mmHg 73%
    02:00 +16°C° 0 mm 1 mps 714 mmHg 73%
    03:00 +15°C° 0 mm 1 mps 714 mmHg 72%
    04:00 +15°C° 0 mm 1 mps 713 mmHg 72%
    05:00 +15°C° 0 mm 1 mps 713 mmHg 72%
    06:00 +15°C° 0 mm 1 mps 713 mmHg 69%
    07:00 +15°C° 0 mm 1 mps 713 mmHg 67%
    08:00 +16°C° 0 mm 1 mps 713 mmHg 65%
    09:00 +19°C° 0 mm 1 mps 713 mmHg 57%
    10:00 +22°C° 0 mm 1 mps 713 mmHg 50%
    11:00 +25°C° 0 mm 1 mps 713 mmHg 42%
    12:00 +26°C° 0 mm 1 mps 712 mmHg 40%
    13:00 +27°C° 0 mm 1 mps 711 mmHg 37%
    14:00 +28°C° 0 mm 1 mps 710 mmHg 35%
    15:00 +27°C° 0 mm 1 mps 710 mmHg 38%
    16:00 +26°C° 0 mm 1 mps 710 mmHg 41%
    17:00 +26°C° 0 mm 2 mps 710 mmHg 45%
    18:00 +24°C° 0 mm 1 mps 710 mmHg 48%
    19:00 +22°C° 0 mm 1 mps 710 mmHg 52%
    20:00 +20°C° 0 mm 1 mps 711 mmHg 55%
    21:00 +20°C° 0 mm 1 mps 711 mmHg 56%
    22:00 +20°C° 0 mm 1 mps 711 mmHg 57%
    23:00 +20°C° 0 mm 1 mps 711 mmHg 59%

    21 July, Sunday

    Time Temperature Precipitation Wind Pressure Humidity
    00:00 +19°C° 0 mm 1 mps 711 mmHg 59%
    01:00 +19°C° 0 mm 1 mps 710 mmHg 59%
    02:00 +19°C° 0 mm 1 mps 710 mmHg 60%
    03:00 +18°C° 0 mm 1 mps 710 mmHg 59%
    04:00 +18°C° 0 mm 1 mps 710 mmHg 59%
    05:00 +18°C° 0 mm 1 mps 710 mmHg 59%
    06:00 +18°C° 0 mm 1 mps 711 mmHg 56%
    07:00 +19°C° 0 mm 1 mps 711 mmHg 54%
    08:00 +19°C° 0 mm 1 mps 712 mmHg 51%
    09:00 +20°C° 0 mm 2 mps 712 mmHg 52%
    10:00 +23°C° 0 mm 2 mps 712 mmHg 53%
    11:00 +25°C° 0 mm 2 mps 713 mmHg 54%
    12:00 +26°C° 0 mm 2 mps 712 mmHg 54%
    13:00 +26°C° 0 mm 2 mps 712 mmHg 54%
    14:00 +27°C° 0 mm 2 mps 711 mmHg 53%
    15:00 +26°C° 0 mm 2 mps 711 mmHg 56%
    16:00 +26°C° 0 mm 2 mps 711 mmHg 60%
    17:00 +25°C° 0 mm 2 mps 711 mmHg 63%
    18:00 +24°C° 0.1 mm 2 mps 712 mmHg 69%
    19:00 +23°C° 0.1 mm 1 mps 712 mmHg 76%
    20:00 +21°C° 0.1 mm 1 mps 713 mmHg 82%
    21:00 +21°C° 0.1 mm 1 mps 713 mmHg 84%
    22:00 +20°C° 0.1 mm 1 mps 713 mmHg 86%
    23:00 +20°C° 0.1 mm 1 mps 714 mmHg 87%

    22 July, Monday

    Time Temperature Precipitation Wind Pressure Humidity
    00:00 +19°C° 0.1 mm 2 mps 714 mmHg 88%
    01:00 +18°C° 0.1 mm 2 mps 714 mmHg 88%
    02:00 +18°C° 0.1 mm 2 mps 714 mmHg 88%
    03:00 +17°C° 0.1 mm 2 mps 714 mmHg 88%
    04:00 +16°C° 0.1 mm 2 mps 714 mmHg 88%
    05:00 +16°C° 0.1 mm 2 mps 715 mmHg 88%
    06:00 +15°C° 0.2 mm 2 mps 715 mmHg 88%
    07:00 +15°C° 0.2 mm 2 mps 716 mmHg 89%
    08:00 +15°C° 0.2 mm 2 mps 717 mmHg 90%
    09:00 +14°C° 0.1 mm 2 mps 717 mmHg 84%
    10:00 +13°C° 0.1 mm 3 mps 718 mmHg 79%
    11:00 +12°C° 0.1 mm 3 mps 718 mmHg 73%
    12:00 +13°C° 0 mm 3 mps 718 mmHg 68%
    13:00 +13°C° 0 mm 3 mps 718 mmHg 63%
    14:00 +13°C° 0 mm 3 mps 718 mmHg 57%
    15:00 +12°C° 0 mm 3 mps 718 mmHg 57%
    16:00 +12°C° 0 mm 3 mps 719 mmHg 57%
    17:00 +11°C° 0 mm 3 mps 720 mmHg 57%
    18:00 +11°C° 0 mm 3 mps 720 mmHg 58%
    19:00 +10°C° 0 mm 2 mps 721 mmHg 60%
    20:00 +10°C° 0 mm 2 mps 722 mmHg 61%
    21:00 +10°C° 0 mm 2 mps 723 mmHg 62%
    22:00 +9°C° 0 mm 2 mps 723 mmHg 64%
    23:00 +9°C° 0 mm 2 mps 723 mmHg 65%
    Show more